Location: Unspecified
(40.2472°N, 0.0000°E)
Time: 13:44:27
(UTC+00:00)

Injun/Solrad 3 - Visible Passes

Search period start: 04 April 2026 00:00
Search period end: 14 April 2026 00:00
Orbit: 870 x 986 km, 66.8° (Epoch: 29 March)

Date Brightness Start Highest point End Pass type
(mag) Time Alt. Az. Time Alt. Az. Time Alt. Az.
4 Apr 9.5 01:42:00 28° N 01:42:00 28° N 01:45:05 10° NNE visible
4 Apr 10.1 03:26:07 10° NW 03:27:23 11° NNW 03:28:40 10° NNW visible
5 Apr 10.4 00:08:56 13° NE 00:08:56 13° NE 00:09:31 10° NE visible
5 Apr 9.5 01:52:33 26° NNW 01:52:33 26° NNW 01:55:52 10° NNE visible
6 Apr 10.2 00:19:27 17° NE 00:19:27 17° NE 00:20:47 10° NE visible
6 Apr 9.7 02:03:03 21° NNW 02:03:03 21° NNW 02:06:32 10° N visible
7 Apr 10.0 00:29:56 21° NNE 00:29:56 21° NNE 00:31:52 10° NNE visible
7 Apr 9.9 02:13:32 16° NW 02:13:32 16° NW 02:17:01 10° N visible
8 Apr 9.8 00:40:22 24° N 00:40:22 24° N 00:42:49 10° NNE visible
8 Apr 10.2 02:23:58 12° NW 02:24:51 12° NNW 02:27:03 10° NNW visible
9 Apr 9.8 00:50:47 25° N 00:50:47 25° N 00:53:39 10° NNE visible
9 Apr 10.2 23:17:32 14° NE 23:17:32 14° NE 23:18:25 10° NE visible
10 Apr 9.8 01:01:08 22° NNW 01:01:08 22° NNW 01:04:21 10° N visible
10 Apr 10.0 23:27:51 20° NNE 23:27:51 20° NNE 23:29:33 10° NNE visible
11 Apr 10.0 01:11:27 18° NNW 01:11:27 18° NNW 01:14:55 10° N visible
11 Apr 9.8 23:38:08 24° NNE 23:38:08 24° NNE 23:40:32 10° NNE visible
12 Apr 10.2 01:21:43 13° NW 01:22:19 13° NW 01:25:10 10° N visible
12 Apr 9.6 23:48:19 27° N 23:48:19 27° N 23:51:25 10° NNE visible
13 Apr 10.0 22:14:51 16° NE 22:14:51 16° NE 22:16:02 10° NE visible
